Погода в Удмуртском Тоймобаше

Россия / Удмуртская Республика     56°15′28″N   52°27′56″E
темп.,
°C
ветер,
м/с
пор.,
м/с
влажн.,
%
обл.,
%
осадки,
мм/ч
давл.,
гПа
погр.,
м
6 августа, пт
пт601:00+16ссз3876100 0.0 1014203
04:00+17ссз3672100 0.1 1015162
07:00+17с367033 0.0 1016309
10:00+21ссв55443 0.0 10171084
13:00+23с45355 0.0 10171750
16:00+23с45320 0.0 10161868
19:00+20с35477 0.0 1016161
22:00+15с3360100 0.0 101725
7 августа, сб
сб701:00+14с226591 0.0 101715
04:00+13с227194 0.0 101813
07:00+16с226142 0.0 1019141
10:00+20с344476 0.0 10191243
13:00+23ссз443711 0.0 10181774
16:00+24с55377 0.0 10181988
19:00+21с3648100 0.0 1019247
22:00+17ссв3657100 0.0 1020172
8 августа, вс
вс801:00+14ссв22665 0.0 102018
04:00+13ссв2269100 0.0 102111
07:00+15ссв236031 0.0 1022166
10:00+20ссв33445 0.0 1022871
13:00+24с44335 0.0 10221262
16:00+25с443341 0.0 10211162
19:00+22с3546100 0.0 1022131
22:00+17св3358100 0.0 102246
9 августа, пн
пн901:00+15св11596 0.0 102211
04:00+14всв1159100 0.0 102310
07:00+17вюв1153100 0.0 102380
10:00+21ююв1143100 0.0 1023446
13:00+26ююз1138100 0.0 1022883
16:00+27ю22355 0.0 10211228
19:00+25юв35465 0.0 102092
22:00+20ююв335415 0.0 102025
10 августа, вт
вт1001:00+19ю485619 0.0 1018131
04:00+17з12645 0.2 101839
07:00+19зюз25674 0.3 1017151
10:00+26сз46500 0.4 1017714
13:00+28ссз57399 0.0 10171942
16:00+29ссз563741 0.0 10162213
19:00+25с474898 0.0 1017292
22:00+19ссв3573100 0.0 101875